Home   Weather   Aurora   Past weeks

Flag for USA Past Weather in Aurora, Colorado, USA — Yesterday and Last 2 Weeks

Now
49 °F

Passing clouds.


Feels Like: 46 °F
Forecast: 35 / 59 °F
Wind: 8 mph from North

Location: Buckley Air Force Base

Current Time: Apr 30, 2017 at 8:46:39 pm

Latest Report: Apr 30, 2017 at 7:58 pm


Visibility: 10 mi

Pressure: 29.86 "Hg (24.47 "Hg at 1647m altitude)

Humidity: 38%

Dew Point: 24 °F

Location of AuroraLocation

Past Weather in Aurora — Graph

°F

Aurora Temperature Yesterday

Maximum temperature yesterday: 30 °F (at 1:32 pm)
Minimum temperature yesterday: 28 °F (at 2:58 am)
Average temperature yesterday: 28 °F

High & Low Weather Summary for the Past Weeks

 TemperatureHumidityPressure
High77 °F (Apr 18, 4:58 pm)100% (Apr 19, 8:03 am)30.32 "Hg (Apr 19, 8:03 am)
Low24 °F (Apr 30, 3:58 am)12% (Apr 17, 4:58 pm)29.39 "Hg (Apr 24, 5:58 pm)
Average47 °F60%29.84 "Hg
* Reported Apr 15 6:58 pm — Apr 30 6:58 pm, Aurora, Weather by CustomWeather, © 2017

Note: Actual official high and low records may vary slightly from our data, if they occured in-between our weather recording intervals... More about our weather records

Advertising

Aurora Weather History for the Previous 24 Hours

Scroll right to see more
 ConditionsComfort  
Time TempWeatherWind HumidityBarometerVisibility
6:58 pm
Sun, Apr 30
56 °FPartly sunny.18 mph27%29.82 "Hg10 mi
5:58 pm56 °FScattered clouds.26 mph22%29.80 "Hg10 mi
4:58 pm58 °FPassing clouds.28 mph20%29.77 "Hg10 mi
3:58 pm57 °FPassing clouds.30 mph24%29.80 "Hg10 mi
2:58 pm54 °FPassing clouds.25 mph29%29.83 "Hg10 mi
1:58 pm50 °FPassing clouds.17 mph38%29.86 "Hg10 mi
12:58 pm45 °FScattered clouds.10 mph49%29.92 "Hg10 mi
11:58 am41 °FScattered clouds.10 mph50%29.96 "Hg10 mi
10:58 am37 °FScattered clouds.10 mph56%30.01 "Hg10 mi
9:58 am33 °FPartly sunny.6 mph61%30.04 "Hg10 mi
8:58 am30 °FBroken clouds.8 mph69%30.03 "Hg10 mi
7:58 am28 °FBroken clouds.12 mph70%30.05 "Hg10 mi
6:58 am26 °FBroken clouds.9 mph69%30.07 "Hg10 mi
5:58 am26 °FPassing clouds.10 mph71%30.08 "Hg10 mi
4:58 am25 °FPassing clouds.8 mph69%30.09 "Hg10 mi
3:58 am24 °FPassing clouds.10 mph74%30.09 "Hg10 mi
2:58 am25 °FPassing clouds.9 mph82%30.12 "Hg10 mi
1:58 am28 °FOvercast.7 mph79%30.16 "Hg10 mi
12:58 am27 °FPartly cloudy.8 mph85%30.17 "Hg10 mi
11:58 pm
Sat, Apr 29
28 °FMostly cloudy.10 mph91%30.19 "Hg10 mi
10:58 pm29 °FOvercast.10 mph91%30.22 "Hg10 mi
9:58 pm28 °FMostly cloudy.15 mph99%30.26 "Hg10 mi
8:58 pm28 °FLight snow. Ice fog.14 mph99%30.27 "Hg3 mi
Weather by CustomWeather, © 2017

See weather overviewHow to use our weather pages